Weather in Karay

Russia / Mari El Republic     56°02′41″N   48°38′53″E
temp.,
°C
wind,
m/s
gust,
m/s
humid.,
%
clouds,
%
prec.,
mm/h
press.,
hPa
HPBL,
m
26 january, tue
tue2600:00−5s51194100 0.1 1025386
03:00−5sse4996100 0.1 1024290
06:00−3s41096100 0.1 1024422
09:00−2s61196100 0.6 1024468
12:00−1s61094100 0.4 1023465
15:00−2s5119498 0.4 1022428
18:00−3s51094100 0.1 1022600
21:00−3s61294100 0.1 1022558
27 january, wed
wed2700:00−2s51195100 0.1 1022518
03:00−1s61195100 0.3 1022450
06:00−1s61193100 0.0 1021555
09:00−1s61193100 0.1 1020685
12:00−1s81391100 0.0 1020658
15:000s71391100 0.0 1019647
18:00−2s71393100 0.0 1019617
21:00−3s61490100 0.0 1017561
28 january, thu
thu2800:00−4s61490100 0.0 1017552
03:00−3s61489100 0.0 1017558
06:00−3ssw61391100 0.0 1016540
09:00−3s61293100 0.0 1017464
12:00−3s5993100 0.0 1017421
15:00−5s4893100 0.0 1017329
18:00−7sse3795100 0.0 1018196
21:00−8sse3795100 0.0 1017214
29 january, fri
fri2900:00−9sse4795100 0.0 1017194
03:00−10se479598 0.0 1016187
06:00−12se479795 0.0 1015153
09:00−10ese599597 0.0 1013252
12:00−7ese5993100 0.0 1011358
15:00−6ese5992100 0.0 1008398
18:00−7ese41093100 0.0 1007362
21:00−5se61195100 0.6 1005609
30 january, sat
sat3000:00−5sse51195100 0.3 1005453
03:00−7sse489797 0.4 1005178
06:00−8sse489792 0.0 1006186
09:00−6sse5119592 0.2 1007459
12:00−3sse71292100 0.1 1006506
15:00−1sse91695100 0.8 10031020
18:00−1sw61197100 1.4 1004679
21:00−5ssw498670 1.4 1006200